[[{"header":{"parameterUnit":"m.s-1","parameterCategory":1,"la1":30.2991,"la2":30.254,"lo1":-89.0895,"lo2":-89.0444,"dy":0.0017,"dx":0.0017,"nx":28,"ny":28,"refTime":"2025-01-19T09:00:00:Z","depth":0,"parameterNumber":2,"parameterNumberName":"U-component_of_WINDS"},"data":[0,0,0,0,0,0,0,0,0,0,0,0,0,0,0,0,0,0,0,0,0,0,0,0,0,0,0,0,0,0,0,0,0,0,0,0,0,0,0,0,0,0,0,0,0,0,0,0,0,0,0,0,0,0,0,0,0,0,-2.2705,-2.2705,0,-2.2704,-2.2704,-2.2704,-2.2652,-2.265,-2.2649,-2.2648,-2.2648,-2.265,-2.2651,0,0,0,0,0,0,0,0,0,0,0,0,0,-2.2661,-2.2662,-2.2705,-2.2705,-2.2705,-2.2704,-2.2704,-2.2704,-2.2652,-2.265,-2.2649,-2.2647,-2.2648,-2.2649,-2.2651,0,0,0,0,0,0,0,0,0,0,0,0,0,-2.2672,-2.2662,-2.2705,-2.2678,-2.2676,-2.2704,-2.2704,-2.2704,-2.2652,-2.265,-2.2648,-2.2646,-2.2647,-2.2649,-2.2651,-2.2705,0,0,-2.2657,-2.2658,0,0,0,0,0,0,0,0,-2.2671,-2.2674,-2.2682,-2.268,-2.2678,-2.2676,-2.2689,-2.2704,-2.2653,-2.2661,-2.2648,-2.2645,-2.2659,-2.266,-2.2665,-2.2705,-2.2705,-2.2657,-2.2658,-2.2659,-2.266,0,0,0,0,0,0,0,-2.2671,-2.2673,-2.2704,-2.2683,-2.268,-2.2667,-2.2666,-2.2692,-2.2672,-2.2661,-2.2657,-2.2657,-2.2658,-2.2663,-2.2664,-2.2705,-2.2657,-2.2659,-2.266,-2.2661,-2.2789,-2.2791,0,0,0,0,0,0,-2.2673,-2.2673,-2.2704,-2.2704,-2.2669,-2.2669,-2.2669,-2.2679,-2.2671,-2.2668,-2.2659,-2.2655,-2.266,-2.2662,-2.2664,-2.2727,-2.2659,-2.2661,-2.2662,-2.2786,-2.2789,-2.2792,0,0,0,0,0,0,-2.2673,-2.2677,-2.2705,-2.2688,-2.269,-2.2672,-2.2684,-2.268,-2.2685,-2.267,-2.2667,-2.2668,-2.2659,-2.2661,-2.2695,-2.2726,-2.2662,-2.2664,-2.2784,-2.2787,-2.279,-2.2852,0,0,0,0,0,0,-2.2672,-2.2677,-2.2697,-2.2689,-2.2691,-2.2736,-2.2686,-2.2681,-2.2688,-2.2683,-2.2678,-2.2675,-2.2657,-2.2692,-2.2697,-2.2727,-2.2665,-2.2781,-2.2785,-2.2789,-2.2847,-2.2857,-2.2865,0,0,0,0,0,-2.267,-2.2714,-2.2698,-2.2702,-2.2716,-2.2737,-2.2739,-2.2718,-2.2691,-2.2711,-2.2702,-2.2675,-2.2721,-2.2696,-2.2701,-2.2732,-2.2779,-2.2784,-2.2789,-2.2843,-2.2855,-2.2865,0,0,0,0,0,0,-2.2727,-2.2713,-2.2695,-2.2737,-2.2739,-2.2728,-2.2753,-2.2731,-2.274,-2.2735,-2.2708,-2.2707,-2.2746,-2.2742,-2.2714,-2.2784,-2.2745,-2.2752,-2.2785,-2.2796,-2.2805,-2.2806,-2.2667,0,0,0,0,0,-2.2745,-2.2763,-2.2749,-2.2788,-2.279,-2.2772,-2.278,-2.2763,-2.2764,-2.2765,-2.2758,-2.276,-2.2774,-2.2785,-2.2798,-2.2846,-2.2844,-2.287,-2.2879,-2.2887,-2.2893,-2.2918,-2.293,-2.2808,-2.2808,-2.2808,0,0,-2.2781,-2.2775,-2.2789,-2.28,-2.2799,-2.2819,-2.2773,-2.2795,-2.281,-2.2768,-2.28,-2.2795,-2.2795,-2.2836,-2.2854,-2.2834,-2.2926,-2.2893,-2.2899,-2.2901,-2.2925,-2.2936,-2.2947,-2.2811,-2.2811,-2.281,0,0,-2.2858,-2.2855,-2.2887,-2.2887,-2.2887,-2.2874,-2.2882,-2.2875,-2.287,-2.2901,-2.287,-2.2887,-2.2913,-2.2914,-2.2919,-2.2995,-2.2972,-2.3,-2.3049,-2.3074,-2.3084,-2.3092,-2.312,-2.3131,-2.3006,-2.3006,-2.3006,0,-2.2903,-2.2932,-2.2907,-2.2932,-2.2938,-2.29,-2.2933,-2.2934,-2.2938,-2.2943,-2.2921,-2.2953,-2.295,-2.2992,-2.3011,-2.3015,-2.3023,-2.3001,-2.3084,-2.3092,-2.31,-2.3126,-2.3137,-2.301,-2.3009,-2.3009,-2.3009,0,-2.2988,-2.3008,-2.3034,-2.3039,-2.3047,-2.3076,-2.3056,-2.3068,-2.305,-2.304,-2.3072,-2.3068,-2.3079,-2.3087,-2.3071,-2.3127,-2.3115,-2.3089,-2.305,-2.3115,-2.314,-2.315,-2.3015,-2.3014,-2.3013,-2.3012,0,0,-2.3102,-2.3091,-2.3102,-2.3103,-2.3099,-2.3115,-2.3142,-2.3153,-2.3164,-2.3167,-2.319,-2.3212,-2.3188,-2.3193,-2.3176,-2.3198,-2.326,-2.3169,-2.3169,-2.3187,-2.3322,-2.3343,-2.3355,-2.3244,-2.3245,-2.3247,-2.3323,0,-2.3177,-2.3222,-2.3201,-2.3249,-2.3268,-2.3232,-2.3255,-2.3256,-2.3247,-2.3261,-2.3251,-2.3268,-2.3235,-2.3237,-2.3258,-2.3248,-2.3287,-2.3242,-2.3265,-2.3266,-2.3267,-2.3368,-2.3389,-2.3461,-2.3332,-2.3334,-2.3335,0,-2.3271,-2.3278,-2.3328,-2.3321,-2.3328,-2.335,-2.3358,-2.3372,-2.3372,-2.3364,-2.3369,-2.3346,-2.3373,-2.3333,-2.3369,-2.334,-2.3347,-2.3344,-2.3346,-2.3349,-2.3305,-2.3374,-2.3483,-2.3495,-2.3349,-2.3348,-2.3347,0,-2.335,-2.3372,-2.3405,-2.3407,-2.34,-2.3416,-2.3413,-2.3411,-2.3419,-2.3426,-2.3431,-2.3441,-2.3447,-2.3455,-2.3436,-2.3409,-2.3476,-2.3434,-2.347,-2.3471,-2.3487,-2.3486,-2.3601,-2.349,-2.349,-2.349,-2.349,0,-2.3437,-2.3469,-2.3441,-2.3461,-2.3496,-2.3471,-2.3507,-2.35,-2.3498,-2.3517,-2.3486,-2.3504,-2.3477,-2.3493,-2.3478,-2.3511,-2.3514,-2.3508,-2.3504,-2.3512,-2.3513,-2.3518,-2.3513,-2.3493,-2.3492,-2.3491,-2.3491,0,-2.3532,-2.3514,-2.3548,-2.3537,-2.3535,-2.3562,-2.3553,-2.3572,-2.356,-2.3584,-2.3588,-2.3571,-2.3588,-2.3569,-2.3585,-2.3574,-2.3619,-2.3607,-2.3619,-2.3616,-2.3654,-2.3651,-2.3776,-2.3791,-2.367,-2.3671,-2.3672,0,-2.3589,-2.3613,-2.3605,-2.3615,-2.3615,-2.3631,-2.3639,-2.3615,-2.3624,-2.3625,-2.3644,-2.3658,-2.3669,-2.3697,-2.3686,-2.3698,-2.3686,-2.3729,-2.3688,-2.3695,-2.3688,-2.3688,-2.369,-2.3738,-2.374,-2.3741,-2.3742,0,-2.3693,-2.3683,-2.3695,-2.3705,-2.3715,-2.3721,-2.3725,-2.3735,-2.3709,-2.3722,-2.3738,-2.3746,-2.3762,-2.3777,-2.3785,-2.3783,-2.3759,-2.3755,-2.3764,-2.3773,-2.3779,-2.3777,-2.3644,-2.3752,-2.3751,-2.3751,-2.375,-2.375,-2.3771,-2.3791,-2.3789,-2.3804,-2.3804,-2.3808,-2.3825,-2.3816,-2.3829,-2.384,-2.3824,-2.3846,-2.3844,-2.3853,-2.3853,-2.387,-2.3851,-2.3864,-2.3868,-2.3872,-2.3878,-2.3776,-2.3871,-2.3871,-2.387,-2.387,-2.387,0,-2.3875,-2.3871,-2.3885,-2.3891,-2.3903,-2.3878,-2.3881,-2.3893,-2.3912,-2.3912,-2.3923,-2.3942,-2.3956,-2.3946,-2.3957,-2.3973,-2.3962,-2.3977,-2.3976,-2.3976,-2.3893,-2.3884,-2.3985,-2.3985,-2.3985,-2.3985,-2.3985,-2.3985,-2.393,-2.3962,-2.3952,-2.3984,-2.398,-2.4,-2.4004,-2.4008,-2.4009,-2.4032,-2.4043,-2.4036,-2.4032,-2.4043,-2.4055,-2.4052,-2.4058,-2.4077,-2.407,-2.3993,-2.3982,-2.3971,-2.3963,-2.4078,-2.4079,-2.4152,-2.4152,-2.4153]},{"header":{"parameterUnit":"m.s-1","parameterCategory":1,"la1":30.2991,"la2":30.254,"lo1":-89.0895,"lo2":-89.0444,"dy":0.0017,"dx":0.0017,"nx":28,"ny":28,"refTime":"2025-01-19T09:00:00:Z","depth":0,"parameterNumber":3,"parameterNumberName":"V-component_of_WINDS"},"data":[0,0,0,0,0,0,0,0,0,0,0,0,0,0,0,0,0,0,0,0,0,0,0,0,0,0,0,0,0,0,0,0,0,0,0,0,0,0,0,0,0,0,0,0,0,0,0,0,0,0,0,0,0,0,0,0,0,0,-5.1276,-5.1276,0,-5.1334,-5.1335,-5.1335,-5.1306,-5.1304,-5.1303,-5.1301,-5.1357,-5.136,-5.1362,0,0,0,0,0,0,0,0,0,0,0,0,0,-5.1134,-5.1137,-5.1276,-5.1276,-5.1277,-5.1334,-5.1335,-5.1336,-5.1306,-5.1304,-5.1303,-5.1301,-5.1356,-5.1359,-5.1363,0,0,0,0,0,0,0,0,0,0,0,0,0,-5.1194,-5.1138,-5.1276,-5.127,-5.127,-5.1334,-5.1335,-5.1336,-5.1307,-5.1304,-5.1302,-5.13,-5.1355,-5.1359,-5.1363,-5.1436,0,0,-5.1376,-5.1378,0,0,0,0,0,0,0,0,-5.1191,-5.12,-5.127,-5.127,-5.127,-5.1311,-5.1305,-5.1369,-5.1307,-5.1292,-5.1301,-5.1299,-5.1343,-5.1348,-5.1364,-5.1438,-5.144,-5.1377,-5.1379,-5.1381,-5.1383,0,0,0,0,0,0,0,-5.1187,-5.1197,-5.1299,-5.1271,-5.1271,-5.1262,-5.1268,-5.1317,-5.133,-5.1294,-5.1292,-5.1299,-5.1343,-5.136,-5.1365,-5.1441,-5.1377,-5.1381,-5.1383,-5.1385,-5.1578,-5.158,0,0,0,0,0,0,-5.1184,-5.1194,-5.1297,-5.13,-5.1224,-5.1267,-5.1274,-5.13,-5.1329,-5.1331,-5.1301,-5.1297,-5.1354,-5.136,-5.1367,-5.1454,-5.1381,-5.1385,-5.1388,-5.1575,-5.1578,-5.1581,0,0,0,0,0,0,-5.1181,-5.1193,-5.1294,-5.1247,-5.1259,-5.1272,-5.1301,-5.1302,-5.1319,-5.1335,-5.1336,-5.1317,-5.1352,-5.1361,-5.1419,-5.1456,-5.1387,-5.1391,-5.1572,-5.1576,-5.158,-5.1629,0,0,0,0,0,0,-5.1177,-5.1192,-5.1221,-5.1248,-5.1262,-5.1347,-5.1304,-5.1305,-5.1327,-5.1324,-5.135,-5.1352,-5.1351,-5.1413,-5.1423,-5.146,-5.1395,-5.1569,-5.1574,-5.1579,-5.1624,-5.1634,-5.1642,0,0,0,0,0,-5.1172,-5.1232,-5.1223,-5.1235,-5.1298,-5.1349,-5.1357,-5.1356,-5.1331,-5.1359,-5.1369,-5.1351,-5.145,-5.1419,-5.1431,-5.1469,-5.1567,-5.1573,-5.1578,-5.162,-5.1632,-5.1642,0,0,0,0,0,0,-5.1207,-5.1235,-5.1225,-5.1296,-5.1321,-5.1344,-5.138,-5.1369,-5.14,-5.1395,-5.1391,-5.1397,-5.1458,-5.1469,-5.1435,-5.1541,-5.1504,-5.1512,-5.1532,-5.1543,-5.1552,-5.1549,-5.1398,0,0,0,0,0,-5.1224,-5.1265,-5.1286,-5.1345,-5.1359,-5.1368,-5.139,-5.1387,-5.1412,-5.1422,-5.1436,-5.146,-5.1496,-5.152,-5.1554,-5.1625,-5.163,-5.1657,-5.1666,-5.1674,-5.1681,-5.172,-5.1732,-5.16,-5.16,-5.16,0,0,-5.1257,-5.1277,-5.1303,-5.1353,-5.1372,-5.1414,-5.1376,-5.1422,-5.1452,-5.1428,-5.1485,-5.1496,-5.1522,-5.1587,-5.1617,-5.1598,-5.1719,-5.1681,-5.1687,-5.169,-5.1727,-5.174,-5.1751,-5.1604,-5.1603,-5.1602,0,0,-5.134,-5.1359,-5.1412,-5.1432,-5.1462,-5.1467,-5.148,-5.1505,-5.1512,-5.1569,-5.1552,-5.1587,-5.165,-5.167,-5.1688,-5.1778,-5.1763,-5.1789,-5.1837,-5.1874,-5.1885,-5.1894,-5.1927,-5.1939,-5.1796,-5.1796,-5.1796,0,-5.1377,-5.1441,-5.1439,-5.1487,-5.1509,-5.1491,-5.1543,-5.1562,-5.1601,-5.1616,-5.1596,-5.1674,-5.169,-5.176,-5.1782,-5.1797,-5.1811,-5.1786,-5.1884,-5.1893,-5.1902,-5.1933,-5.1945,-5.1799,-5.1799,-5.1798,-5.1798,0,-5.1486,-5.153,-5.1568,-5.1609,-5.1635,-5.1685,-5.1689,-5.1716,-5.171,-5.1718,-5.1776,-5.1794,-5.1832,-5.1848,-5.1842,-5.1917,-5.1905,-5.1884,-5.1847,-5.1917,-5.1947,-5.1959,-5.1803,-5.1802,-5.1801,-5.1801,0,0,-5.1593,-5.1633,-5.1647,-5.1665,-5.1697,-5.173,-5.1778,-5.1817,-5.184,-5.1866,-5.1907,-5.196,-5.1941,-5.1962,-5.1958,-5.1991,-5.2062,-5.1965,-5.1966,-5.1984,-5.2146,-5.2162,-5.2176,-5.2051,-5.2054,-5.2055,-5.2144,0,-5.1679,-5.1766,-5.1766,-5.1845,-5.1886,-5.1869,-5.191,-5.1933,-5.1941,-5.1975,-5.1983,-5.2022,-5.1993,-5.2005,-5.2037,-5.2046,-5.2094,-5.204,-5.2088,-5.209,-5.2084,-5.2191,-5.2209,-5.2292,-5.2155,-5.2157,-5.2158,0,-5.1791,-5.1824,-5.1908,-5.1935,-5.1951,-5.1989,-5.2025,-5.2058,-5.2083,-5.2086,-5.211,-5.2101,-5.2148,-5.2109,-5.2175,-5.2138,-5.2157,-5.2164,-5.2167,-5.2173,-5.2129,-5.2201,-5.2318,-5.2331,-5.2176,-5.2175,-5.2173,0,-5.1863,-5.1928,-5.1987,-5.2002,-5.2034,-5.2061,-5.2075,-5.2098,-5.2122,-5.2152,-5.2167,-5.2202,-5.2221,-5.2247,-5.2247,-5.2219,-5.2314,-5.2274,-5.2317,-5.2317,-5.2339,-5.2338,-5.2462,-5.235,-5.2349,-5.2349,-5.2349,0,-5.196,-5.2012,-5.2019,-5.2056,-5.2114,-5.2112,-5.2169,-5.218,-5.2201,-5.2238,-5.2223,-5.2258,-5.2256,-5.2291,-5.2291,-5.2345,-5.2353,-5.2357,-5.2356,-5.2359,-5.2359,-5.2373,-5.2367,-5.2352,-5.2352,-5.2351,-5.2351,0,-5.205,-5.2057,-5.212,-5.2145,-5.2153,-5.2194,-5.2215,-5.2249,-5.2255,-5.2302,-5.2313,-5.2322,-5.2363,-5.2365,-5.2411,-5.2411,-5.2478,-5.247,-5.247,-5.2469,-5.2512,-5.2509,-5.2651,-5.267,-5.2544,-5.2545,-5.2546,0,-5.2112,-5.2152,-5.2182,-5.2207,-5.2223,-5.2263,-5.2287,-5.2286,-5.2312,-5.2344,-5.2374,-5.2413,-5.2445,-5.2509,-5.2519,-5.2554,-5.2548,-5.2596,-5.2553,-5.2555,-5.255,-5.2549,-5.2553,-5.2604,-5.2606,-5.2607,-5.2608,0,-5.2222,-5.2223,-5.226,-5.2298,-5.2328,-5.2357,-5.2384,-5.2404,-5.2407,-5.2436,-5.2478,-5.2503,-5.255,-5.2589,-5.2623,-5.2636,-5.2623,-5.2621,-5.2633,-5.2637,-5.2635,-5.2638,-5.2494,-5.2618,-5.2617,-5.2616,-5.2616,-5.2615,-5.23,-5.2336,-5.2363,-5.2404,-5.2424,-5.245,-5.2484,-5.2495,-5.253,-5.257,-5.2567,-5.2614,-5.2637,-5.2682,-5.2697,-5.2732,-5.2716,-5.2733,-5.2738,-5.2742,-5.2748,-5.2629,-5.2738,-5.2738,-5.2738,-5.2737,-5.2737,0,-5.241,-5.2427,-5.2465,-5.2504,-5.2536,-5.2522,-5.2551,-5.2578,-5.262,-5.2644,-5.2676,-5.2724,-5.2762,-5.2775,-5.2811,-5.2837,-5.2831,-5.2846,-5.2845,-5.2848,-5.276,-5.2746,-5.285,-5.285,-5.285,-5.285,-5.285,-5.285,-5.2471,-5.2531,-5.2535,-5.2604,-5.262,-5.2667,-5.2685,-5.2708,-5.2727,-5.2783,-5.2815,-5.2823,-5.2842,-5.288,-5.2914,-5.2916,-5.2931,-5.2949,-5.2949,-5.2866,-5.2854,-5.2844,-5.2831,-5.2951,-5.2952,-5.3035,-5.3035,-5.3036]}]]